Location: Lake Sonoma
(38.7200°N, 123.0564°W)
Time: 12:30:14
(UTC-08:00)

ISS - All Passes

Search period start: 09 February 2016 00:00
Search period end: 19 February 2016 00:00
Orbit: 399 x 408 km, 51.6° (Epoch: 09 February)

Date Brightness Start Highest point End Pass type
(mag) Time Alt. Az. Time Alt. Az. Time Alt. Az.
09 Feb - 14:49:04 10° S 14:51:10 16° SE 14:53:16 10° E daylight
09 Feb - 16:24:12 10° WSW 16:27:21 47° NW 16:30:30 10° NE daylight
09 Feb - 18:03:03 10° NW 18:04:26 12° NNW 18:05:49 10° N daylight
09 Feb - 21:17:09 10° NNW 21:19:35 19° NNE 21:22:02 10° ENE night (unlit)
09 Feb - 22:53:04 10° WNW 22:56:17 59° SW 22:59:28 10° SE night (unlit)
10 Feb - 15:31:27 10° SW 15:34:41 87° SE 15:37:57 10° NE daylight
10 Feb - 17:09:23 10° WNW 17:11:31 16° NNW 17:13:40 10° NNE daylight
10 Feb - 20:24:56 10° NNW 20:26:43 14° NNE 20:28:30 10° NE visible
10 Feb - 22:00:27 10° NW 22:03:40 66° NE 22:06:53 10° ESE night (unlit)
10 Feb - 23:38:36 10° WSW 23:39:43 11° SW 23:40:49 10° SSW night (unlit)
11 Feb - 14:39:03 10° SSW 14:42:08 40° SE 14:45:12 10° ENE daylight
11 Feb - 16:15:58 10° W 16:18:40 23° NNW 16:21:22 10° NNE daylight
11 Feb - 19:32:55 10° N 19:33:45 11° NNE 19:34:36 10° NNE visible
11 Feb - 21:07:57 10° NW 21:10:58 34° NNE 21:13:58 10° E night (unlit)
11 Feb - 22:44:40 10° WNW 22:47:17 23° SW 22:49:54 10° S night (unlit)
12 Feb - 13:47:10 10° S 13:49:37 20° SE 13:52:05 10° E daylight
12 Feb - 15:22:48 10° WSW 15:25:53 38° NNW 15:28:58 10° NE daylight
12 Feb - 17:01:58 10° NNW 17:03:03 11° NNW 17:04:08 10° N daylight
12 Feb - 20:15:34 10° NNW 20:18:10 22° NNE 20:20:45 10° E visible
12 Feb - 21:51:38 10° WNW 21:54:46 46° SW 21:57:53 10° SSE night (unlit)
13 Feb - 14:29:56 10° SW 14:33:10 75° NW 14:36:25 10° NE daylight
13 Feb - 16:08:09 10° WNW 16:10:05 15° NNW 16:12:01 10° NNE daylight
13 Feb - 19:23:16 10° NNW 19:25:16 15° NNE 19:27:16 10° ENE visible
13 Feb - 20:58:54 10° NW 21:02:09 82° NE 21:05:23 10° SE visible
14 Feb - 13:37:23 10° SW 13:40:33 51° SE 13:43:42 10° ENE daylight
14 Feb - 15:14:37 10° WNW 15:17:10 21° NNW 15:19:44 10° NNE daylight
14 Feb - 18:31:06 10° N 18:32:18 12° NNE 18:33:30 10° NE visible
14 Feb - 20:06:20 10° NW 20:09:25 41° NNE 20:12:31 10° ESE visible
14 Feb - 21:43:20 10° W 21:45:40 18° SW 21:47:59 10° S night (unlit)
15 Feb - 12:45:15 10° S 12:47:58 25° SE 12:50:42 10° ENE daylight
15 Feb - 14:21:20 10° W 14:24:19 33° NNW 14:27:19 10° NE daylight
15 Feb - 16:00:50 10° NNW 16:01:33 11° NNW 16:02:16 10° N daylight
15 Feb - 19:13:52 10° NNW 19:16:37 25° NNE 19:19:22 10° E visible
15 Feb - 20:50:06 10° WNW 20:53:07 37° SW 20:56:08 10° SSE visible
16 Feb - 11:54:01 10° SSE 11:55:28 12° SE 11:56:55 10° ESE daylight
16 Feb - 13:28:19 10° WSW 13:31:33 61° NW 13:34:47 10° NE daylight
16 Feb - 15:06:49 10° NW 15:08:32 13° NNW 15:10:15 10° NNE daylight
16 Feb - 18:21:30 10° NNW 18:23:42 17° NNE 18:25:55 10° ENE visible
16 Feb - 19:57:15 10° NW 20:00:30 80° SW 20:03:44 10° SE visible
17 Feb - 12:35:37 10° SW 12:38:51 65° SE 12:42:04 10° ENE daylight
17 Feb - 14:13:10 10° WNW 14:15:34 19° NNW 14:17:57 10° NNE daylight
17 Feb - 17:29:14 10° N 17:30:43 12° NNE 17:32:11 10° NE daylight
17 Feb - 19:04:36 10° NW 19:07:46 50° NE 19:10:56 10° ESE visible
17 Feb - 20:41:59 10° W 20:43:54 15° SW 20:45:50 10° SSW visible
18 Feb - 11:43:18 10° SSW 11:46:13 30° SE 11:49:08 10° ENE daylight
18 Feb - 13:19:46 10° W 13:22:39 28° NNW 13:25:32 10° NNE daylight
18 Feb - 18:12:04 10° NNW 18:14:57 28° NNE 18:17:49 10° E daylight
18 Feb - 19:48:29 10° WNW 19:51:22 29° SW 19:54:14 10° SSE visible
